• In India
  • List of Countries
  • For 7 days
  • Water Temperature
  • Satellite Maps
  • Weather Map
  • Weather Widgets
  • user-avatar
    Login

    Hourly Weather Popasne

    Today, 19 August, Sunday

    Time Temperature Precipitation Wind Pressure Humidity
    00:00 +19°C° 0 mm 4 mps 751 mmHg 57%
    01:00 +18°C° 0 mm 3 mps 751 mmHg 58%
    02:00 +18°C° 0 mm 3 mps 751 mmHg 62%
    03:00 +17°C° 0 mm 3 mps 751 mmHg 63%
    04:00 +17°C° 0 mm 3 mps 751 mmHg 64%
    05:00 +16°C° 0 mm 3 mps 752 mmHg 65%
    06:00 +19°C° 0 mm 3 mps 752 mmHg 58%
    07:00 +21°C° 0 mm 3 mps 752 mmHg 52%
    08:00 +24°C° 0 mm 3 mps 752 mmHg 44%
    09:00 +26°C° 0 mm 4 mps 752 mmHg 40%
    10:00 +27°C° 0 mm 4 mps 752 mmHg 36%
    11:00 +28°C° 0 mm 4 mps 752 mmHg 31%
    12:00 +29°C° 0 mm 4 mps 752 mmHg 30%
    13:00 +29°C° 0 mm 4 mps 752 mmHg 28%
    14:00 +30°C° 0 mm 4 mps 751 mmHg 26%
    15:00 +30°C° 0 mm 3 mps 751 mmHg 27%
    16:00 +29°C° 0 mm 3 mps 751 mmHg 28%
    17:00 +29°C° 0 mm 3 mps 751 mmHg 29%
    18:00 +27°C° 0 mm 3 mps 751 mmHg 32%
    19:00 +25°C° 0 mm 2 mps 751 mmHg 36%
    20:00 +23°C° 0 mm 2 mps 751 mmHg 39%
    21:00 +21°C° 0 mm 2 mps 751 mmHg 40%
    22:00 +20°C° 0 mm 2 mps 751 mmHg 41%
    23:00 +19°C° 0 mm 2 mps 751 mmHg 42%

    Tomorrow, 20 August, Monday

    Time Temperature Precipitation Wind Pressure Humidity
    00:00 +19°C° 0 mm 2 mps 751 mmHg 42%
    01:00 +18°C° 0 mm 2 mps 751 mmHg 43%
    02:00 +18°C° 0 mm 2 mps 751 mmHg 43%
    03:00 +17°C° 0 mm 2 mps 751 mmHg 43%
    04:00 +17°C° 0 mm 2 mps 751 mmHg 44%
    05:00 +16°C° 0 mm 2 mps 751 mmHg 44%
    06:00 +19°C° 0 mm 2 mps 751 mmHg 40%
    07:00 +21°C° 0 mm 2 mps 752 mmHg 36%
    08:00 +24°C° 0 mm 2 mps 752 mmHg 33%
    09:00 +26°C° 0 mm 2 mps 752 mmHg 30%
    10:00 +27°C° 0 mm 2 mps 752 mmHg 28%
    11:00 +28°C° 0 mm 2 mps 752 mmHg 25%
    12:00 +29°C° 0 mm 2 mps 751 mmHg 24%
    13:00 +29°C° 0 mm 2 mps 751 mmHg 23%
    14:00 +30°C° 0 mm 2 mps 750 mmHg 23%
    15:00 +30°C° 0 mm 2 mps 750 mmHg 24%
    16:00 +30°C° 0 mm 2 mps 750 mmHg 25%
    17:00 +29°C° 0 mm 2 mps 750 mmHg 26%
    18:00 +27°C° 0 mm 1 mps 750 mmHg 29%
    19:00 +25°C° 0 mm 1 mps 750 mmHg 32%
    20:00 +23°C° 0 mm 1 mps 750 mmHg 35%
    21:00 +22°C° 0 mm 1 mps 750 mmHg 36%
    22:00 +22°C° 0 mm 1 mps 750 mmHg 37%
    23:00 +21°C° 0 mm 1 mps 750 mmHg 38%

    Day after tomorrow, 21 August, Tuesday

    Time Temperature Precipitation Wind Pressure Humidity
    00:00 +20°C° 0 mm 1 mps 749 mmHg 39%
    01:00 +20°C° 0 mm 1 mps 749 mmHg 40%
    02:00 +19°C° 0 mm 1 mps 749 mmHg 41%
    03:00 +19°C° 0 mm 1 mps 749 mmHg 41%
    04:00 +19°C° 0 mm 1 mps 749 mmHg 42%
    05:00 +18°C° 0 mm 1 mps 749 mmHg 43%
    06:00 +20°C° 0 mm 2 mps 749 mmHg 39%
    07:00 +23°C° 0 mm 2 mps 749 mmHg 36%
    08:00 +25°C° 0 mm 2 mps 749 mmHg 32%
    09:00 +27°C° 0 mm 2 mps 749 mmHg 29%
    10:00 +29°C° 0 mm 2 mps 749 mmHg 26%
    11:00 +30°C° 0 mm 2 mps 749 mmHg 23%
    12:00 +31°C° 0 mm 2 mps 749 mmHg 22%
    13:00 +31°C° 0 mm 2 mps 748 mmHg 21%
    14:00 +32°C° 0 mm 2 mps 748 mmHg 20%
    15:00 +32°C° 0 mm 2 mps 748 mmHg 22%
    16:00 +31°C° 0 mm 2 mps 747 mmHg 23%
    17:00 +31°C° 0 mm 2 mps 747 mmHg 25%
    18:00 +29°C° 0 mm 2 mps 747 mmHg 28%
    19:00 +27°C° 0 mm 2 mps 747 mmHg 30%
    20:00 +25°C° 0 mm 2 mps 747 mmHg 33%
    21:00 +24°C° 0 mm 2 mps 747 mmHg 36%
    22:00 +24°C° 0 mm 2 mps 747 mmHg 39%
    23:00 +23°C° 0 mm 2 mps 747 mmHg 42%

    22 August, Wednesday

    Time Temperature Precipitation Wind Pressure Humidity
    00:00 +23°C° 0 mm 2 mps 747 mmHg 49%
    01:00 +21°C° 0 mm 2 mps 748 mmHg 56%
    02:00 +20°C° 0 mm 2 mps 748 mmHg 63%
    03:00 +20°C° 0 mm 2 mps 748 mmHg 69%
    04:00 +19°C° 0 mm 3 mps 748 mmHg 75%
    05:00 +19°C° 0 mm 3 mps 748 mmHg 81%
    06:00 +20°C° 0 mm 3 mps 749 mmHg 74%
    07:00 +22°C° 0 mm 4 mps 749 mmHg 67%
    08:00 +23°C° 0 mm 5 mps 750 mmHg 59%
    09:00 +25°C° 0 mm 5 mps 750 mmHg 53%
    10:00 +27°C° 0 mm 5 mps 750 mmHg 46%
    11:00 +28°C° 0 mm 5 mps 750 mmHg 39%
    12:00 +28°C° 0 mm 5 mps 750 mmHg 37%
    13:00 +28°C° 0 mm 5 mps 750 mmHg 35%
    14:00 +28°C° 0 mm 6 mps 750 mmHg 33%
    15:00 +28°C° 0 mm 6 mps 750 mmHg 33%
    16:00 +27°C° 0 mm 6 mps 751 mmHg 34%
    17:00 +26°C° 0 mm 6 mps 751 mmHg 34%
    18:00 +23°C° 0 mm 5 mps 751 mmHg 38%
    19:00 +21°C° 0 mm 5 mps 752 mmHg 42%
    20:00 +19°C° 0 mm 4 mps 752 mmHg 46%
    21:00 +18°C° 0 mm 4 mps 752 mmHg 48%
    22:00 +17°C° 0 mm 4 mps 753 mmHg 51%
    23:00 +16°C° 0 mm 3 mps 753 mmHg 53%

    23 August, Thursday

    Time Temperature Precipitation Wind Pressure Humidity
    00:00 +16°C° 0 mm 3 mps 753 mmHg 54%
    01:00 +14°C° 0 mm 3 mps 753 mmHg 56%
    02:00 +14°C° 0 mm 3 mps 753 mmHg 57%
    03:00 +13°C° 0 mm 3 mps 753 mmHg 59%
    04:00 +13°C° 0 mm 3 mps 754 mmHg 61%
    05:00 +12°C° 0 mm 3 mps 754 mmHg 62%
    06:00 +14°C° 0 mm 4 mps 754 mmHg 56%
    07:00 +18°C° 0 mm 4 mps 754 mmHg 51%
    08:00 +20°C° 0 mm 5 mps 754 mmHg 45%
    09:00 +21°C° 0 mm 5 mps 754 mmHg 40%
    10:00 +23°C° 0 mm 5 mps 754 mmHg 35%
    11:00 +25°C° 0 mm 5 mps 754 mmHg 30%
    12:00 +26°C° 0 mm 4 mps 753 mmHg 29%
    13:00 +27°C° 0 mm 4 mps 753 mmHg 27%
    14:00 +27°C° 0 mm 4 mps 753 mmHg 25%
    15:00 +27°C° 0 mm 4 mps 753 mmHg 26%
    16:00 +27°C° 0 mm 4 mps 752 mmHg 27%
    17:00 +26°C° 0 mm 4 mps 752 mmHg 28%
    18:00 +23°C° 0 mm 4 mps 752 mmHg 33%
    19:00 +21°C° 0 mm 4 mps 753 mmHg 37%
    20:00 +19°C° 0 mm 3 mps 753 mmHg 42%
    21:00 +18°C° 0 mm 4 mps 753 mmHg 43%
    22:00 +17°C° 0 mm 4 mps 753 mmHg 44%
    23:00 +17°C° 0 mm 4 mps 753 mmHg 45%

    24 August, Friday

    Time Temperature Precipitation Wind Pressure Humidity
    00:00 +15°C° 0 mm 4 mps 753 mmHg 46%
    01:00 +15°C° 0 mm 4 mps 753 mmHg 46%
    02:00 +14°C° 0 mm 4 mps 752 mmHg 47%
    03:00 +14°C° 0 mm 4 mps 752 mmHg 48%
    04:00 +13°C° 0 mm 4 mps 752 mmHg 50%
    05:00 +13°C° 0 mm 4 mps 752 mmHg 52%
    06:00 +15°C° 0 mm 4 mps 752 mmHg 47%
    07:00 +17°C° 0 mm 5 mps 752 mmHg 42%
    08:00 +21°C° 0 mm 5 mps 752 mmHg 37%
    09:00 +23°C° 0 mm 5 mps 752 mmHg 34%
    10:00 +25°C° 0 mm 5 mps 752 mmHg 30%
    11:00 +27°C° 0 mm 5 mps 752 mmHg 26%
    12:00 +28°C° 0 mm 5 mps 751 mmHg 26%
    13:00 +29°C° 0 mm 5 mps 751 mmHg 25%
    14:00 +30°C° 0 mm 5 mps 750 mmHg 24%
    15:00 +29°C° 0 mm 5 mps 750 mmHg 25%
    16:00 +29°C° 0 mm 5 mps 750 mmHg 26%
    17:00 +28°C° 0 mm 4 mps 750 mmHg 27%
    18:00 +26°C° 0 mm 4 mps 749 mmHg 30%
    19:00 +23°C° 0 mm 4 mps 749 mmHg 33%
    20:00 +21°C° 0 mm 4 mps 749 mmHg 35%
    21:00 +21°C° 0 mm 4 mps 749 mmHg 36%
    22:00 +20°C° 0 mm 4 mps 749 mmHg 37%
    23:00 +20°C° 0 mm 4 mps 749 mmHg 37%
    Show more